Flag Weather past 2 weeks in Castries, Saint Lucia

Now
82 °F

Passing clouds.


Feels Like: 88 °F
Forecast: N/A
Wind: 12 mph from Southeast

Location: Vigie

Current Time: Nov 23, 2014 at 5:33:49 PM

Latest Report: Nov 23, 2014 at 5:00 PM


Visibility: N/A

Pressure: 29.92 "Hg

Humidity: 74%

Dew point: 73 °F

Location of CastriesLocation

Historic Weather in Castries — Graph

°F

Castries temperature yesterday

Maximum temperature yesterday: 84 °F (at 12:00 PM)
Minimum temperature yesterday: 77 °F (at 6:00 AM)
Average temperature yesterday: 81 °F

Past Weeks' High & Low Weather Summary

 TemperatureHumidityPressure
High88 °F (Nov 14, 2:00 PM)94% (Nov 8, 4:00 PM)30.04 "Hg (Nov 8, 4:00 PM)
Low75 °F (Nov 21, 6:00 AM)62% (Nov 10, 2:00 PM)29.83 "Hg (Nov 11, 2:00 PM)
Average82 °F78%29.92 "Hg
* Reported Nov 8 4:00 PM — Nov 23 4:00 PM, Castries, Weather by CustomWeather, © 2014

Note: Actual official high and low records may vary slightly from our data, if they occured in-between our weather recording intervals... More about our weather records

Advertising

Castries weather history for previous 24 hours

 ConditionsComfort  
Time TempWeatherWind HumidityBarometerVisibility
4:00 PM
Nov 23
84 °FPassing clouds.14 mph70%29.92 "HgN/A
3:00 PM84 °FPassing clouds.13 mph66%29.92 "HgN/A
2:00 PM84 °FPassing clouds.12 mph74%29.92 "HgN/A
1:00 PM86 °FScattered clouds.13 mph70%29.95 "HgN/A
12:00 PM86 °FPartly sunny.13 mph66%29.98 "HgN/A
11:00 AM84 °FPartly sunny.9 mph70%29.98 "HgN/A
10:00 AM82 °FPartly sunny.9 mph74%30.01 "HgN/A
9:00 AM82 °FPartly sunny.9 mph74%29.98 "HgN/A
8:00 AM82 °FScattered clouds.10 mph74%29.98 "HgN/A
7:00 AM81 °FPassing clouds.9 mph79%29.95 "HgN/A
6:00 AM81 °FPassing clouds.10 mph79%29.92 "HgN/A
3:00 AM81 °FPassing clouds.9 mph79%29.92 "HgN/A
2:00 AM81 °FPartly cloudy.10 mph74%29.92 "HgN/A
1:00 AM81 °FPassing clouds.10 mph79%29.95 "HgN/A
12:00 AM81 °FPartly cloudy.6 mph79%29.95 "HgN/A
11:00 PM
Nov 22
82 °FPassing clouds.12 mph74%29.98 "HgN/A
10:00 PM81 °FSprinkles. Passing clouds.12 mph79%29.98 "HgN/A
9:00 PM81 °FPartly cloudy.12 mph79%29.95 "HgN/A
8:00 PM81 °FPassing clouds.10 mph79%29.95 "HgN/A
7:00 PM81 °FPassing clouds.12 mph84%29.92 "HgN/A
6:00 PM81 °FPartly cloudy.9 mph84%29.89 "HgN/A
5:00 PM82 °FPartly sunny.9 mph74%29.89 "HgN/A
Weather by CustomWeather, © 2014

See weather overviewHow to use our weather pages